Miscellaneous Local Product
Issued by NWS Hastings, NE

Home | Current Version | Previous Version | Text Only | Print | Product List | Glossary On
Versions: 1 2 3 4 5 6 7 8 9 10 11 12 13 14 15 16 17 18 19 20 21 22 23 24 25 26 27 28 29 30 31 32 33 34 35 36 37 38 39 40 41 42 43 44 45 46 47 48 49 50
047
AXUS43 KGID 242102
MISGRI

GID CWA HOURLY WEATHER ROUNDUP
NATIONAL WEATHER SERVICE HASTINGS NE
400 PM CDT TUE APR 24 2018

NOTE: "FAIR" INDICATES FEW OR NO CLOUDS BELOW 12,000 FEET WITH NO
SIGNIFICANT WEATHER AND/OR OBSTRUCTIONS TO VISIBILITY.

...SOUTH CENTRAL NEBRASKA...

CITY           SKY/WX    TMP DP  RH WIND       PRES   REMARKS
GRAND ISLAND   LGT RAIN  45  42  89 NW15      30.25S
KEARNEY        CLOUDY    45  41  86 NW17      30.26F
HASTINGS       LGT RAIN  45  44  97 NW20      30.23F
ORD            CLOUDY    45  44  97 NW21G28   30.23F FOG
YORK           LGT RAIN  46  46 100 NW16      30.22F
AURORA         LGT RAIN  46  44  94 NW18      30.23F
LEXINGTON      CLOUDY    44  39  82 N23       30.30F
HOLDREGE       DRIZZLE   44  41  90 NW17G25   30.27S
HEBRON         LGT RAIN  49  47  91 NW12      30.23F

...NEBRASKA PANHANDLE...

CITY           SKY/WX    TMP DP  RH WIND       PRES   REMARKS
CHADRON        LGT RAIN  43  32  65 NE18G24   30.46F
ALLIANCE       CLOUDY    39  31  72 N22G29    30.40F WCI  29
SCOTTSBLUFF    CLOUDY    42  33  70 N15       30.42F
SIDNEY         CLOUDY    40  31  70 N21       30.39F WCI  30

...WESTERN AND NORTH CENTRAL NEBRASKA...

CITY           SKY/WX    TMP DP  RH WIND       PRES   REMARKS
VALENTINE      CLOUDY    40  36  86 N18G36    30.37R WCI  31
AINSWORTH      CLOUDY    38  38 100 N20G30    30.34R FOG     WCI  27
ONEILL         CLOUDY    46  44  93 N15G21    30.26R FOG
BROKEN BOW     CLOUDY    42  39  89 NW22G32   30.28S
IMPERIAL       CLOUDY    43  36  76 NW24G32   30.34F
NORTH PLATTE   CLOUDY    43  36  76 N20G29    30.33S
MCCOOK         CLOUDY    44  39  82 NW21      30.31F

...EASTERN NEBRASKA...

CITY           SKY/WX    TMP DP  RH WIND       PRES   REMARKS
NORFOLK        LGT RAIN  48  47  96 W8        30.19S
SO SIOUX CITY  CLOUDY    61  41  47 N15       30.17R
TEKAMAH        CLOUDY    62  45  53 NW22      30.15R
COLUMBUS       LGT RAIN  49  47  93 NW13      30.22F
ALBION         LGT RAIN  47  46  94 NW8       30.21F
OMAHA EPPLEY   CLOUDY    68  41  37 NW22      30.10R
OFFUTT AFB     PTSUNNY   68  42  37 NW20      30.09S
MILLARD        CLOUDY    65  44  46 NW20G26   30.13S
LINCOLN        CLOUDY    57  46  66 NW18      30.20R
NEBRASKA CITY  CLOUDY    68  45  43 NW23G31   30.10R
BEATRICE       CLOUDY    60  47  63 NW18G28   30.19R
FALLS CITY     CLOUDY    74  33  22 NW9       30.07F

...NORTHERN KANSAS...

CITY           SKY/WX    TMP DP  RH WIND       PRES   REMARKS
GOODLAND       CLOUDY    43  37  79 N25G36    30.31F
HILL CITY      LGT RAIN  45  42  89 NW16G24   30.30S
NORTON         LGT RAIN  45  41  87 NW14      30.28S
PHILLIPSBURG   LGT RAIN  46  46 100 NW13      30.27F
SMITH CENTER   RAIN      45  43  93 NW13      30.26F
BELOIT         CLOUDY    48  45  87 N12G22    30.21S
HAYS           CLOUDY    45  42  89 NW22      30.25S
RUSSELL        CLOUDY    47  46  97 NW20      30.24S
CONCORDIA      LGT RAIN  49  46  90 N13       30.20F
SALINA         CLOUDY    60  48  64 NW22G29   30.18S
TOPEKA         CLOUDY    79  36  21 N10G21    30.07F



USA.gov is the U.S. government's official web portal to all federal, state and local government web resources and services.